TZINGHUA 1

Satellite information

Favourite Embed

Satellite Type and Status

PAYLOADIN ORBIT

Key statistics

Satellite TZINGHUA 1 at a glance.

Uptime

9195

Days in orbit

Revolutions

≈ 14.7

Per day

Orbit

SSO

Sun Synchronous Orbit

Inclination

97.8

Latest

Satellite identification and parameters

Extended collection of information and parameters for TZINGHUA 1.

Object identification

Identified? True

Debris? False

Object name: TZINGHUA 1

International designator: 2000-033B

Object number (NORAD): 26385

Object ID (CCSDS): 26385

Country: PEOPLES REPUBLIC OF CHINA (PRC)

Current information (Y/N): Y

RCS size: MEDIUM

Orbital parameters

Period: 98.119 minutes

Inclination: 97.8428 deg

SMA: 7046.863 km

Apoapsis: 678.234 km

Periapsis: 659.222 km

RAAN: 222.6964 deg

Eccentricy: 0.00134899

Argument of periapsis: 310.9574 deg

Mean anomaly: 49.0464 deg

Mean motion: 14.67604356 rev/day

Mean motion (dot): 0.00001364 rev/day2

B* drag term: 0.00024792647 1/REarth

Two-line elements (TLE)

Creation date: Aug. 31, 2025, 2:26 a.m.

Reference frame: TEME

Reference center: EARTH

Epoch: Aug. 30, 2025, 9:29 p.m. UTC

TLE line 0: 0 TZINGHUA 1

TLE line 1: 1 26385U 00033B 25242.89541417 .00001364 00000-0 24793-3 0 9996

TLE line 2: 2 26385 97.8428 222.6964 0013490 310.9574 49.0464 14.67604356344292

Live tracking on map

Real-time ground track for satellite TZINGHUA 1.

In-orbit conjunctions

There are no conjunctions computed for TZINGHUA 1, at the moment. Check back to stay up to date, as we update our databases every day.

Go to all conjunctions

Associated space launch

Civilian navigation satellite equivalent to the purely military Parus

TZINGHUA 1 was lifted into orbit during the mission ‘Kosmos-3M | Nadezhda 9’, on board a Kosmos-3M space rocket.

The launch took place on June 28, 2000, 10:37 a.m. from 132/1 (132L).

For more information about the launch, click the button.

Launch to space Kosmos-3M | Nadezhda 9
Kosmos-3M | Nadezhda 9

Agency: N/A

Status: Launch Successful

Launch date: June 28, 2000, 10:37 a.m. UTC

Rocket: Kosmos-3M

Launch pad: 132/1 (132L)

Location: Plesetsk Cosmodrome, Russian Federation

...

Latest news about this satellite

There are no fresh news available about this satellite. Check back as we update our databases every day.


Newsletter sign-up

Weekly statistics, charts and insights to help you stay on top of the space industry.